Weather Roundup
Issued by NWS Springfield, MO

Home | Current Version | Previous Version | Text Only | Print | Product List | Glossary On
Versions: 1 2 3 4 5 6 7 8 9 10 11 12 13 14 15 16 17 18 19 20 21 22 23 24 25 26 27 28 29 30 31 32 33 34 35 36 37 38 39 40 41 42 43 44 45 46 47 48 49 50
000
NZUS99 KSGF 210607
HRRSGF

HOURLY WEATHER
NATIONAL WEATHER SERVICE SPRINGFIELD MO
100 AM CDT SUN SEP 21 2014

......SGF CWA......

CITY           SKY/WX    TMP DP  RH WIND       PRES   REMARKS
SPRINGFIELD    MOCLDY    70  67  90 S6        30.02S
6HR MIN TEMP:  70; 6HR MAX TEMP:  79;

JOPLIN         MOCLDY    74  68  81 SW8       30.01F
6HR MIN TEMP:  73; 6HR MAX TEMP:  80;

WEST PLAINS    CLEAR     69  66  90 SW5       30.03F
6HR MIN TEMP:  69; 6HR MAX TEMP:  79;

ROLLA          MOCLDY    70  67  90 SW8       29.97F
6HR MIN TEMP:  69; 6HR MAX TEMP:  76;

OSAGE BEACH    PTCLDY    73  66  78 SW5       29.98F
BRANSON        PTCLDY    68  66  94 CALM      30.05R

......SURROUNDING SGF CWA......

CITY           SKY/WX    TMP DP  RH WIND       PRES   REMARKS
CHANUTE        CLOUDY    73  70  90 CALM      30.03R
PARSONS        CLOUDY    74  70  87 W3        30.03R
EMPORIA        PTCLDY    68  66  93 W3        30.04R
GROVE OK       MOCLDY    70  70 100 CALM      30.03R
ROGERS AR      PTCLDY    70  65  84 S6        30.06S
SILOAM SPRINGS CLEAR     70  63  78 S3        30.06R
HARRISON AR    CLEAR     71  66  84 S5        30.05S
NEAR YELLVILLE CLEAR     72  63  73 SW3       30.02S

......KANSAS AND MISSOURI......

CITY           SKY/WX    TMP DP  RH WIND       PRES   REMARKS
KANSAS CTY INT CLEAR     68  66  93 W8        30.00S
DOWNTOWN KC    CLEAR     70  67  90 SW6       29.98S
COLUMBIA       PTCLDY    74  70  87 W9        29.96S
SEDALIA        PTCLDY    73  69  87 W6        29.98S
ST JOSEPH      CLEAR     70  63  78 N18G28    30.01R
ST LOUIS       MOCLDY    77  68  73 W13       29.91F
SPIRIT OF STL  MOCLDY    75  68  78 SW8       29.90F
KIRKSVILLE     CLEAR     70  63  78 NW14G21   29.96R
WICHITA        CLOUDY    74  69  85 CALM      30.05R
TOPEKA         CLEAR     66  65  96 W5        30.02R
OLATHE         CLEAR     70  67  90 W5        30.00S

......TENNESSEE......

CITY           SKY/WX    TMP DP  RH WIND       PRES   REMARKS
MEMPHIS        CLEAR     74  67  78 S3        30.01S
NASHVILLE      CLEAR     69  65  86 S3        30.02S

......ARKANSAS.......

CITY           SKY/WX    TMP DP  RH WIND       PRES   REMARKS
FAYETTEVILLE   CLEAR     65  65 100 S5        30.05F
FT SMITH       CLEAR     73  70  90 CALM      30.02S
LITTLE ROCK    CLEAR     72  68  87 CALM      30.01F

......OKLAHOMA.......

CITY           SKY/WX    TMP DP  RH WIND       PRES   REMARKS
TULSA          MOCLDY    77  68  73 S7        30.01F
PONCA CITY     CLEAR     75  67  76 SE6       30.03R
MCALESTER      CLEAR     69  67  93 CALM      30.04S
OKLAHOMA CITY  PTCLDY    71  66  84 S6        30.03S

......IOWA............

CITY           SKY/WX    TMP DP  RH WIND       PRES   REMARKS
DES MOINES     CLEAR     62  51  67 N6        30.00S
QUAD CITIES    CLOUDY    66  57  72 NW18G26   29.87R

......ILLINOIS........

CITY           SKY/WX    TMP DP  RH WIND       PRES   REMARKS
QUINCY         CLEAR     71  69  93 W9        29.88F FOG



USA.gov is the U.S. government's official web portal to all federal, state and local government web resources and services.